This is the latest recevied weather packets stored in our database for station/object N3MFL. If no packets are shown the sender has not sent any weather packets the latest 1 day(s).
| Time | Temp. | Humidity | Pressure | Rain* | Wind** | Luminosity | Snow |
|---|---|---|---|---|---|---|---|
| 1778063509 | 13.89° C | 89% | 1012.6 hPa | 0 mm | - | 56 W/m² | - |
| 1778063207 | 13.89° C | 89% | 1012.6 hPa | 0 mm | - | 50 W/m² | - |
| 1778062904 | 13.89° C | 89% | 1012.6 hPa | 0 mm | - | 36 W/m² | - |
| 1778062601 | 13.89° C | 89% | 1012.7 hPa | 0 mm | - | 24 W/m² | - |
| 1778062298 | 13.89° C | 89% | 1012.5 hPa | 0 mm | - | 17 W/m² | - |
| 1778061694 | 13.89° C | 89% | 1012.2 hPa | 0 mm | - | 13 W/m² | - |
| 1778061392 | 13.89° C | 89% | 1012.2 hPa | 0 mm | - | 11 W/m² | - |
| 1778060786 | 13.89° C | 88% | 1012.2 hPa | 0 mm | - | 5 W/m² | - |
| 1778060182 | 13.89° C | 88% | 1012.2 hPa | 0 mm | - | 2 W/m² | - |
| 1778059879 | 13.89° C | 87% | 1012.4 hPa | 0 mm | - | 1 W/m² | - |
| 1778059274 | 13.89° C | 87% | 1012.4 hPa | 0 mm | - | 0 W/m² | - |
| 1778058367 | 14.44° C | 86% | 1012.4 hPa | 0 mm | - | 0 W/m² | - |
| 1778057760 | 14.44° C | 86% | 1012.4 hPa | 0 mm | - | 0 W/m² | - |
| 1778057456 | 14.44° C | 86% | 1012.7 hPa | 0 mm | - | 0 W/m² | - |
| 1778057153 | 14.44° C | 85% | 1012.5 hPa | 0 mm | - | 0 W/m² | - |
| 1778056849 | 14.44° C | 85% | 1012.6 hPa | 0 mm | - | 0 W/m² | - |
| 1778055940 | 14.44° C | 85% | 1012.7 hPa | 0 mm | - | 0 W/m² | - |
| 1778055636 | 14.44° C | 85% | 1012.6 hPa | 0 mm | - | 0 W/m² | - |
| 1778054426 | 14.44° C | 85% | 1012.8 hPa | 0 mm | - | 0 W/m² | - |
| 1778053820 | 14.44° C | 85% | 1012.8 hPa | 0 mm | - | 0 W/m² | - |
| 1778053518 | 14.44° C | 85% | 1012.8 hPa | 0 mm | - | 0 W/m² | - |
| 1778051399 | 14.44° C | 84% | 1012.6 hPa | 0 mm | - | 0 W/m² | - |
| 1778051096 | 14.44° C | 84% | 1012.7 hPa | 0 mm | - | 0 W/m² | - |
| 1778050793 | 14.44° C | 84% | 1012.7 hPa | 0 mm | - | 0 W/m² | - |
| 1778050491 | 14.44° C | 83% | 1012.8 hPa | 0 mm | - | 0 W/m² | - |
* Rain latest hour (hover to see other rain measurements)
** Current wind speed in m/s (hover to see current wind gust speed)